Regional Weather Roundup
Issued by NWS

Home | Current Version | Previous Version | Text Only | Print | Product List | Glossary Off
Versions: 1 2 3 4 5 6 7 8 9 10 11 12 13 14 15 16 17 18 19 20 21 22 23 24 25 26 27 28 29 30 31 32 33 34 35 36 37 38 39 40 41 42 43 44 45 46 47 48 49 50

000
ASUS43 KLOT 231309
RWRIL

ILLINOIS REGIONAL WEATHER ROUNDUP
NATIONAL WEATHER SERVICE CHICAGO/ROMEOVILLE IL
800 AM CDT SAT SEP 23 2017

NOTE: "FAIR" INDICATES FEW OR NO CLOUDS BELOW 12,000 FEET WITH NO
SIGNIFICANT WEATHER AND/OR OBSTRUCTIONS TO VISIBILITY.

* THESE STATIONS ARE NOT UNDER NWS QUALITY CONTROL. THEY ALSO MAY NOT
  REPORT WEATHER SUCH AS PRECIPITATION OR FOG.

ILZ001-002-007-009-015-016-024-231400-
NORTHWEST ILLINOIS

CITY           SKY/WX    TMP DP  RH WIND       PRES   REMARKS
MOLINE         SUNNY     71  65  81 CALM      30.05R
STERLING*      SUNNY     68  66  93 E3        30.08R
SAVANNA*       MOSUNNY   67  66  95 CALM      30.07R
$$

ILZ003-004-008-010-011-017-018-231400-
NORTH CENTRAL ILLINOIS

CITY           SKY/WX    TMP DP  RH WIND       PRES   REMARKS
ROCKFORD       SUNNY     70  65  84 CALM      30.10R
FREEPORT*      MOSUNNY   68  64  88 E3        30.11R
ROCHELLE*      SUNNY     70  66  88 CALM      30.10R
DE KALB*       SUNNY     70  66  88 S6        30.11R
PERU*          SUNNY     72  65  78 CALM      30.09R
$$

ILZ005-006-012>014-019>023-231400-
NORTHEAST ILLINOIS

CITY           SKY/WX    TMP DP  RH WIND       PRES   REMARKS
CHICAGO-OHARE  MOSUNNY   78  66  66 SE3       30.09R HX  80
CHICAGO-MIDWAY MOSUNNY   78  66  66 S5        30.09R HX  80
AURORA         MOSUNNY   72  68  87 CALM      30.10R FOG
LANSING*       SUNNY     71  69  93 CALM      30.10S
JOLIET*        SUNNY     73  69  87 CALM      30.10R
WAUKEGAN       SUNNY     73  69  87 CALM      30.09R FOG
DUPAGE AIRPORT SUNNY     71  68  90 CALM      30.09R FOG
KANKAKEE*      SUNNY     69  68  94 CALM      30.10S
WHEELING       SUNNY     75  70  84 CALM      30.10R
MORRIS*        SUNNY     70  67  90 CALM      30.09R
ROMEOVILLE*    SUNNY     72  67  84 S5        30.10R
NORTHERLY ISL    N/A     75  67  76 SE2         N/A
$$

LMZ740>746-231400-
SOUTHERN LAKE MICHIGAN

STATION/POSITION SKY/WX   TEMP    WIND        PRES    VSBY  WAVE
                          AIR SEA DIR/SP/G                  HT/PER
                          (F)     (DEG/KT/KT) (MB)    (MI)  (FT/S)
SOUTHERN BUOY              72 70  130/  6/  8 1018.7          0
WILMETTE HARBOR            74 72  160/  2/  4   N/A           0
HARRISON CRIB              77     180/  8/  9   N/A
BURNHAM HARBOR             76                   N/A
CALUMET HARBOR             76     190/  2/  4 1018.4R
BURNS HARBOR               75     150/  4/  5 1019.6R
MICHIGAN CITY              74      CALM  /  1   N/A
MICHIGAN CITY 6N           73 71  130/  2/  2   N/A           0
ST. JOSEPH                 73 71  220/  2/  4 1019.5          0
$$

ILZ025>027-034>036-040-047-049-050-058-095>099-231400-
WEST-CENTRAL ILLINOIS

CITY           SKY/WX    TMP DP  RH WIND       PRES   REMARKS
QUINCY         SUNNY     71  64  78 CALM      30.05R
GALESBURG*     SUNNY     69  64  84 SE3       30.08R
MACOMB*        SUNNY     64  62  96 CALM      30.08R FOG
JACKSONVILLE*  SUNNY     71  65  82 CALM      30.07R
PITTSFIELD*    SUNNY     68  65  90 CALM      30.08R
$$

ILZ028>032-037-038-041>044-048-051>054-059>061-231400-
CENTRAL ILLINOIS

CITY           SKY/WX    TMP DP  RH WIND       PRES   REMARKS
PONTIAC        SUNNY     70  70  98 CALM      30.10R
BLOOMINGTON    SUNNY     72  67  84 S3        30.11R
DECATUR        MOSUNNY   69  66  90 CALM      30.09R
PEORIA         SUNNY     73  67  81 CALM      30.07R
LACON*         SUNNY     70  67  90 CALM      30.07R
LINCOLN*       SUNNY     69  67  93 CALM      30.08R
SPRINGFIELD    SUNNY     74  68  81 CALM      30.07R
TAYLORVILLE    MOSUNNY   71  67  89 CALM      30.08R
$$

ILZ033-039-045-046-055>057-062-063-231400-
EAST-CENTRAL ILLINOIS

CITY           SKY/WX    TMP DP  RH WIND       PRES   REMARKS
CHAMPAIGN      SUNNY     72  67  84 CALM      30.10R
RANTOUL*       MOSUNNY   72  68  89 CALM      30.11R
MATTOON        SUNNY     71  68  90 CALM      30.09R
PARIS*         SUNNY     69  69 100 CALM      30.11R FOG
$$

ILZ079-100>102-231400-
SOUTHWEST ILLINOIS

CITY           SKY/WX    TMP DP  RH WIND       PRES   REMARKS
ALTON          SUNNY     68  66  94 VRB3      30.07R
BELLEVILLE     SUNNY     68  65  91 CALM      30.06R
CAHOKIA*       SUNNY     72  66  81 CALM      30.06R
SPARTA*        SUNNY     68  67  94 CALM      30.08R
$$

ILZ064>066-069>071-074>076-080>082-084>086-088>090-092>094-231400-
SOUTH-CENTRAL ILLINOIS

CITY           SKY/WX    TMP DP  RH WIND       PRES   REMARKS
CARBONDALE     SUNNY     67  67 100 CALM      30.06S FOG
CAIRO*         MOSUNNY   68  68 100 CALM      30.06R FOG
EFFINGHAM*     SUNNY     68  67  98 CALM      30.11R
MARION         SUNNY     68  68 100 CALM      30.07S
MT. VERNON       N/A     68  67  96 N3        30.08R
CENTRALIA*     SUNNY     70  67  93 CALM      30.07R
SALEM*         SUNNY     71  67  89 CALM      30.08S
METROPOLIS*    SUNNY     69  67  95 CALM      30.07R
$$

ILZ067-068-072-073-078-083-087-091-231400-
SOUTHEAST ILLINOIS

CITY           SKY/WX    TMP DP  RH WIND       PRES   REMARKS
LAWRENCEVILLE  SUNNY     71  70  96 CALM      30.10R FOG
FLORA*         SUNNY     71  68  91 CALM      30.09R FOG
FAIRFIELD*     SUNNY     70  67  91 CALM      30.07R
HARRISBURG*    SUNNY     68  68  99 CALM      30.07S FOG
ROBINSON*      SUNNY     66  66 100 CALM      30.11R FOG
CARMI*         SUNNY     68  68 100 CALM      30.07R FOG
$$

ABBREVIATIONS USED IN REMARKS
   TC - TEMPERATURE IN CELSIUS
  WCI - WIND CHILL INDEX
   HX - HEAT INDEX
  VSB - VISIBILITY
$$




USA.gov is the U.S. government's official web portal to all federal, state and local government web resources and services.